Content
SEND FEEDBACK

Daily
Averages
Monthly
Summary
United States of America

ST. LOUIS, MISSOURI


Home > North America > United States > Missouri
Elevation: 163 meters     Latitude: 38 45N     Longitude: 090 22W

WEATHER
 
SELECT A DAY
Number of Records: 196,619;   Date Range: 1/1/95 - 9/16/14
 
SHARE

PRINT THIS DATA

[ ← Previous Day ]
WEATHER ALMANAC - 27 APRIL, 2013
[ Next Day → ]
[ °F ]   °C
Weather ElementAverageHighLow
Temperature10.8 °C12.2 °C (1:54 pm)9 °C (4:06 am)
Dewpoint9.5 °C11.1 °C (4:54 pm)7.2 °C (1:54 am)
Humidity91.9 %96 % (4:54 pm)83 % (1:54 am)
Barometer1019.6 hPa1025.1 hPa (1:54 am)1013.9 hPa (11:54 pm)
Wind Speed8.2 km/h14.8 km/h (10:26 am)
Weather ElementAverage
Visibility6.6 km
Wind DirectionESE (101.1 °)

Weather ElementTotal
Precipitation20.32 mm
Heating Degree Days7.7 (Base 18.3)
Growing Degree Days0.6 (Base 10)
Averaged from 44 records on 27 April, 2013
WEATHER CONDITIONS BREAKOUT
WIND DIRECTION BREAKOUT
WEATHER BY HOUR - 27 APRIL, 2013
[ °F ]   °C
Local TimeTemperatureDewpointHumidityBarometerVisibilityWind DirectionWind SpeedGust SpeedPrecipitationEventsConditions
1:54 AM10 °C7.2 °C83 %1025.1 hPa16.1 kmCalmOvercast
2:54 AM10 °C7.8 °C86 %1023.7 hPa6.4 kmESE (110°)7.4 km/h0 mmRainLight Rain
3:54 AM9.4 °C8.3 °C93 %1023.4 hPa12.9 kmENE (70°)9.3 km/h0.25 mmOvercast
4:06 AM9 °C8 °C93 %1023 hPa12.9 kmENE (70°)9.3 km/hOvercast
4:19 AM9 °C8 °C93 %1023 hPa12.9 kmENE (70°)7.4 km/hOvercast
4:54 AM10 °C8.3 °C89 %1023.4 hPa9.7 kmCalmOvercast
5:33 AM9 °C8 °C93 %1022 hPa6.4 kmEast (80°)9.3 km/h0 mmOvercast
5:54 AM9.4 °C8.3 °C93 %1022.4 hPa9.7 kmEast (90°)5.6 km/h0 mmOvercast
6:09 AM9 °C8 °C93 %1022.4 hPa8 kmEast (100°)9.3 km/hOvercast
6:18 AM9 °C8 °C93 %1022.4 hPa6.4 kmCalmOvercast
6:35 AM9 °C8 °C93 %1022 hPa3.2 kmEast (80°)9.3 km/h0 mmRainLight Rain
6:50 AM9 °C8 °C93 %1022 hPa2.4 kmEast (80°)11.1 km/h0.25 mmOvercast
6:54 AM10 °C8.3 °C89 %1022 hPa2.4 kmEast (80°)11.1 km/h0.25 mmOvercast
7:17 AM10 °C9 °C94 %1021.7 hPa3.2 kmEast (90°)11.1 km/hOvercast
7:54 AM10 °C8.9 °C93 %1022.4 hPa4.8 kmEast (90°)7.4 km/h0 mmRainLight Rain
8:07 AM10 °C9 °C94 %1021.7 hPa4 kmEast (100°)7.4 km/h0.76 mmRainRain
8:54 AM10 °C8.9 °C93 %1021.3 hPa4 kmEast (90°)13 km/h2.54 mmRainLight Rain
9:54 AM10.6 °C9.4 °C92 %1021 hPa4 kmEast (80°)9.3 km/h1.27 mmRainLight Rain
10:26 AM11 °C9 °C88 %1020.3 hPa4.8 kmEast (80°)14.8 km/h0.76 mmRainLight Rain
10:54 AM11.1 °C9.4 °C89 %1020.7 hPa6.4 kmEast (80°)14.8 km/h1.02 mmRainLight Rain
11:08 AM11 °C9 °C88 %1020.7 hPa4 kmEast (90°)7.4 km/h0.25 mmRainLight Rain
11:43 AM11 °C9 °C88 %1020.7 hPa4 kmEast (100°)5.6 km/h0.51 mmRainLight Rain
11:52 AM11 °C9 °C88 %1020.7 hPa4 kmEast (90°)5.6 km/h0.51 mmRainLight Rain
11:54 AM11.1 °C10 °C93 %1020.7 hPa4 kmEast (100°)7.4 km/h0.76 mmRainLight Rain
12:05 PM11 °C10 °C94 %1020.3 hPa3.2 kmEast (90°)7.4 km/h0 mmRainLight Rain
12:27 PM12 °C10 °C88 %1020 hPa2.9 kmEast (90°)11.1 km/h0.25 mmRainLight Rain
12:31 PM12 °C10 °C88 %1020 hPa3.2 kmEast (90°)9.3 km/h0.25 mmRainLight Rain
12:54 PM11.7 °C10.6 °C93 %1019.6 hPa3.2 kmEast (80°)9.3 km/h0.51 mmRainLight Rain
1:54 PM12.2 °C10.6 °C90 %1019 hPa3.2 kmEast (80°)7.4 km/h0 mmOvercast
2:54 PM11.7 °C10.6 °C93 %1017.9 hPa3.2 kmEast (80°)11.1 km/hOvercast
3:54 PM11.7 °C10.6 °C93 %1016.9 hPa3.2 kmNE (50°)11.1 km/hOvercast
4:08 PM12 °C11 °C94 %1016.6 hPa4.8 kmNE (50°)11.1 km/hOvercast
4:21 PM12 °C11 °C94 %1016.6 hPa4.8 kmENE (60°)13 km/h0 mmRainLight Rain
4:34 PM12 °C11 °C94 %1016.3 hPa3.2 kmENE (70°)11.1 km/h0 mmRainLight Rain
4:54 PM11.7 °C11.1 °C96 %1016.3 hPa3.2 kmENE (70°)11.1 km/h0.51 mmRainLight Rain
5:54 PM12.2 °C11.1 °C93 %1015.6 hPa3.2 kmNNE (30°)7.4 km/h0.76 mmRainLight Rain
6:54 PM11.7 °C11.1 °C96 %1015.6 hPa3.2 kmNorth (360°)5.6 km/h4.32 mmRainRain
7:54 PM11.7 °C10.6 °C93 %1015.2 hPa3.2 kmNorth (360°)7.4 km/h4.32 mmRainLight Rain
8:01 PM12 °C11 °C94 %1014.9 hPa14.5 kmNorth (360°)7.4 km/h0 mmRainLight Rain
8:19 PM12 °C11 °C94 %1014.9 hPa14.5 kmNorth (10°)5.6 km/h0 mmRainLight Rain
8:54 PM11.7 °C10.6 °C93 %1015.2 hPa14.5 kmNorth (10°)7.4 km/h0 mmOvercast
9:54 PM11.7 °C10.6 °C93 %1014.9 hPa12.9 kmNNW (330°)5.6 km/h0.25 mmOvercast
10:54 PM11.7 °C10.6 °C93 %1014.2 hPa12.9 kmNorth (360°)5.6 km/hOvercast
11:54 PM11.7 °C10.6 °C93 %1013.9 hPa14.5 kmCalmOvercast
Hourly data recorded from KSUS, located 0 kilometers away from St. Louis, Missouri







STORIES FROM OUR PARTNERS